OPS 4682 DEB, 38454

Orbit data source: Space-Track

OPS 4682 DEB, 38454 is space debris in LEO originally from a launch on Sat, 03 Apr 1965 UTC launched from the Air Force Western Test Range (AFWTR). Debris objects in space refer to the collection of defunct objects orbiting the Earth. Examples of debris include non-operational satellites, rocket bodies, and fragments generated from explosions, collisions, or faulty payload assembly.

Loading next visibility...
Identifier
38454, 1965-027FK
Orbit
LEO
Country
Flag of USUS
Related business
Manufacturer
Unknown
Mission
Spacecraft
Bus & Motor
Unknown
Mass
Unknown
Launch date (UTC)
1965-04-03 (61 years ago)
Launch vehicle
Unknown
Launch site
Air Force Western Test Range (AFWTR)
Object type
Payload
Rocket body
Debris
Shape & HBR
Unknown shape, 0.1 m
Radar Cross Section
Small (<0.1 m²)

Expand to show TLE details & history
Last TLE update: 2 days ago

TLE from 2 days ago
0 OPS 4682 DEB
1 38454U 65027FK  26262.26615542  .00000048  00000-0  14511-3 0  9990
2 38454  90.2497   9.1715 0032731 329.3885  30.5324 12.95350718594785
Epoch: 2026-09-19T06:23Z
TLE epoch observation values (Epoch: 2026-09-19T06:23:15.828Z)
Latitude
Longitude
-84.82161°
Altitude
1,261.66 km
Speed
7.235 km/s
True Right ascension
00h 36m 41s
True Declination
0° 00' 00"
Sunlit
Object was in full shadow at epoch
Visualization orbit readout
Latitude
Unknown
Longitude
Unknown
Altitude
Unknown
Speed
Unknown
Apparent Right ascension
Unknown
Apparent Declination
Unknown
Sunlit
N/A
Visualization observer readout
Local Sidereal Time
21:46:37
Azimuth
Unknown
Elevation
Unknown
Doppler factor
Unknown
Orbital elements
Apogee altitude
1,302.549 km
Perigee altitude
1,252.433 km
Semi-major axis
7,655.628 km
Eccentricity
0.00327
Inclination
90.2497°
RAAN
9.1715°
Arg. of periapsis
329.3885°
True anomaly
30.72362°
Mean anomaly
30.5324°
Eccentric anomaly
30.62794°
Mean motion
3.2402 °/min
Orbital period
111.1 mins
BSTAR
0.00014511
Loading maneuver chart data...
Computing Atmospheric mass density...
Loading historical data...
Loading historical data...
Loading historical data...
Loading historical data...
Loading historical data...
Loading historical data...
Loading historical data...

Documentation

Showing up to 5 results
|